Hourly Data Report for August 10, 2004

All times are specified in Local Standard Time (LST). Add 1 hour to adjust for Daylight Saving Time where and when it is observed.

TORONTO CITY
ONTARIO

43°40'00.000" N
79°24'00.000" W
112.50 m
6158355
71508
XTO

Download Data

Hourly Data (August 2004)
Hourly Data Report for August 10, 2004
TIME Temp Definition
°C
Dew Point Definition
°C
Rel Hum Definition
%
Wind Dir Definition
10's deg

Wind Spd Definition
km/h
Visibility Definition
km
Stn Press Definition
kPa
Hmdx Definition


Wind Chill Definition


Weather Definition


00:00 21.0 17.1 78 LegendMM LegendMM LegendMM 99.92 26   LegendNANA
01:00 21.2 17.7 80 LegendMM LegendMM LegendMM 99.87 27   LegendNANA
02:00 20.9 18.3 85 LegendMM LegendMM LegendMM 99.75 27   LegendNANA
03:00 21.3 18.9 86 LegendMM LegendMM LegendMM 99.65 28   LegendNANA
04:00 21.2 19.5 90 LegendMM LegendMM LegendMM 99.62 28   LegendNANA
05:00 20.8 19.3 91 LegendMM LegendMM LegendMM 99.60 28   LegendNANA
06:00 20.8 19.7 93 LegendMM LegendMM LegendMM 99.61 28   LegendNANA
07:00 21.1 19.7 92 LegendMM LegendMM LegendMM 99.58 28   LegendNANA
08:00 21.7 20.1 91 LegendMM LegendMM LegendMM 99.56 29   LegendNANA
09:00 23.5 20.6 84 LegendMM LegendMM LegendMM 99.50 32   LegendNANA
10:00 24.1 20.3 79 LegendMM LegendMM LegendMM 99.48 32   LegendNANA
11:00 25.1 21.1 79 LegendMM LegendMM LegendMM 99.46 34   LegendNANA
12:00 25.0 20.7 77 LegendMM LegendMM LegendMM 99.39 33   LegendNANA
13:00 25.4 20.6 75 LegendMM LegendMM LegendMM 99.31 33   LegendNANA
14:00 24.9 21.4 81 LegendMM LegendMM LegendMM 99.24 34   LegendNANA
15:00 21.1 18.5 85 LegendMM LegendMM LegendMM 99.28 27   LegendNANA
16:00 24.2 18.5 71 LegendMM LegendMM LegendMM 99.26 31   LegendNANA
17:00 24.8 17.3 63 LegendMM LegendMM LegendMM 99.30 30   LegendNANA
18:00 24.8 15.1 55 LegendMM LegendMM LegendMM 99.35 29   LegendNANA
19:00 23.5 14.7 58 LegendMM LegendMM LegendMM 99.40 27   LegendNANA
20:00 22.9 15.0 61 LegendMM LegendMM LegendMM 99.40 27   LegendNANA
21:00 22.5 15.3 64 LegendMM LegendMM LegendMM 99.43 27   LegendNANA
22:00 22.2 15.1 64 LegendMM LegendMM LegendMM 99.46 26   LegendNANA
23:00 21.8 15.3 67 LegendMM LegendMM LegendMM 99.48 26   LegendNANA

Notes on Data Quality.

Legend

  • E = Estimated
  • M = Missing
  • NA = Not Available
Date modified: